QPF
0.00 0.00 0.00 0.00 0.00 0.00 0.00 0.00 0.00 0.00 0.00 0.00 0.00 0.00 0.00 0.00 0.00 0.00 0.00 0.00 0.00 0.01 0.00 0.00 0.00 0.00 0.00 0.01 0.01 0.00 0.01 0.02 0.01 0.01 0.01 0.01 0.00 0.01 0.01 0.00 0.02 0.03 0.06
0.00 0.00 0.00 0.00 0.00 0.00 0.00 0.00 0.00 0.00 0.00 0.00 0.00 0.00 0.00 0.00 0.00 0.00 0.00 0.00 0.00 0.00 0.00 0.00 0.00 0.00 0.01 0.01 0.00 0.00 0.00 0.02 0.01 0.00 0.00 0.00 0.00 0.01 0.01 0.01 0.03 0.06 0.08
0.00 0.00 0.00 0.00 0.00 0.00 0.00 0.00 0.00 0.00 0.00 0.00 0.00 0.00 0.00 0.00 0.00 0.00 0.00 0.00 0.00 0.00 0.00 0.00 0.00 0.00 0.00 0.00 0.00 0.00 0.00 0.03 0.01 0.00 0.00 0.00 0.00 0.01 0.01 0.02 0.03 0.04 0.03
0.00 0.00 0.00 0.00 0.00 0.00 0.00 0.00 0.00 0.00 0.00 0.00 0.00 0.00 0.00 0.00 0.00 0.00 0.00 0.00 0.00 0.00 0.00 0.00 0.01 0.00 0.00 0.00 0.00 0.00 0.01 0.02 0.00 0.01 0.01 0.01 0.00 0.01 0.01 0.01 0.01 0.01 0.00
0.00 0.00 0.00 0.00 0.00 0.00 0.00 0.00 0.00 0.00 0.00 0.00 0.00 0.00 0.00 0.00 0.00 0.00 0.00 0.00 0.00 0.00 0.00 0.00 0.01 0.00 0.00 0.00 0.00 0.00 0.00 0.00 0.00 0.00 0.00 0.00 0.00 0.00 0.00 0.00 0.00 0.00 0.00
0.00 0.00 0.00 0.00 0.00 0.00 0.00 0.00 0.00 0.00 0.00 0.00 0.00 0.00 0.00 0.00 0.00 0.00 0.00 0.00 0.02 0.02 0.01 0.00 0.00 0.00 0.00 0.00 0.00 0.02 0.00 0.00 0.00 0.00 0.00 0.00 0.00 0.00 0.00 0.00 0.00 0.00 0.00
0.00 0.00 0.00 0.00 0.00 0.00 0.00 0.00 0.00 0.01 0.01 0.00 0.00 0.00 0.00 0.00 0.00 0.00 0.00 0.00 0.01 0.01 0.00 0.00 0.00 0.00 0.00 0.00 0.00 0.00 0.00 0.00 0.00 0.00 0.00 0.00 0.00 0.00 0.00 0.00 0.00 0.00 0.00
0.00 0.00 0.00 0.00 0.00 0.00 0.00 0.00 0.01 0.01 0.00 0.00 0.00 0.00 0.00 0.00 0.00 0.00 0.00 0.00 0.00 0.00 0.00 0.00 0.00 0.00 0.00 0.00 0.00 0.00 0.00 0.00 0.00 0.00 0.00 0.00 0.00 0.00 0.00 0.00 0.00 0.00 0.00
0.00 0.00 0.00 0.00 0.00 0.00 0.00 0.00 0.02 0.00 0.00 0.00 0.00 0.00 0.00 0.00 0.00 0.00 0.00 0.00 0.00 0.00 0.00 0.00 0.00 0.00 0.00 0.00 0.00 0.00 0.00 0.00 0.00 0.00 0.00 0.00 0.00 0.00 0.00 0.00 0.00 0.00 0.00
0.00 0.00 0.00 0.00 0.00 0.00 0.00 0.01 0.01 0.01 0.00 0.00 0.00 0.00 0.00 0.00 0.00 0.00 0.00 0.00 0.00 0.00 0.00 0.00 0.00 0.00 0.00 0.00 0.00 0.00 0.00 0.00 0.00 0.00 0.00 0.00 0.00 0.00 0.00 0.00 0.00 0.00 0.00
0.00 0.00 0.00 0.00 0.00 0.00 0.00 0.00 0.01 0.00 0.00 0.00 0.00 0.00 0.00 0.00 0.00 0.00 0.00 0.00 0.00 0.00 0.00 0.00 0.00 0.00 0.00 0.00 0.00 0.00 0.00 0.00 0.00 0.00 0.00 0.00 0.00 0.00 0.00 0.00 0.00 0.00 0.00
0.00 0.00 0.00 0.00 0.00 0.00 0.00 0.00 0.00 0.00 0.01 0.00 0.00 0.00 0.00 0.00 0.00 0.00 0.00 0.00 0.00 0.00 0.00 0.00 0.00 0.00 0.00 0.00 0.00 0.00 0.00 0.00 0.00 0.00 0.00 0.00 0.00 0.00 0.00 0.00 0.00 0.00 0.00
0.00 0.00 0.00 0.00 0.00 0.00 0.00 0.00 0.00 0.00 0.00 0.00 0.00 0.00 0.00 0.00 0.00 0.00 0.00 0.00 0.00 0.00 0.00 0.00 0.00 0.00 0.00 0.00 0.00 0.00 0.00 0.00 0.00 0.00 0.00 0.00 0.00 0.00 0.00 0.00 0.00 0.00 0.00
0.00 0.00 0.00 0.00 0.00 0.00 0.00 0.00 0.00 0.00 0.00 0.00 0.00 0.00 0.00 0.00 0.00 0.00 0.00 0.00 0.00 0.00 0.00 0.00 0.00 0.00 0.00 0.00 0.00 0.00 0.00 0.00 0.00 0.00 0.00 0.00 0.00 0.00 0.00 0.00 0.00 0.00 0.00
0.00 0.00 0.00 0.00 0.00 0.00 0.00 0.00 0.00 0.00 0.00 0.00 0.00 0.00 0.00 0.00 0.00 0.00 0.00 0.00 0.00 0.00 0.00 0.00 0.00 0.00 0.00 0.00 0.00 0.00 0.00 0.00 0.00 0.00 0.00 0.00 0.00 0.00 0.00 0.00 0.00 0.00 0.00
0.00 0.00 0.00 0.00 0.00 0.00 0.00 0.00 0.00 0.00 0.00 0.00 0.00 0.00 0.00 0.00 0.00 0.00 0.00 0.00 0.00 0.00 0.00 0.00 0.00 0.00 0.00 0.00 0.00 0.00 0.00 0.00 0.00 0.00 0.00 0.00 0.00 0.00 0.00 0.00 0.00 0.00 0.00
0.00 0.00 0.00 0.00 0.00 0.00 0.00 0.00 0.00 0.00 0.00 0.00 0.00 0.00 0.00 0.00 0.00 0.00 0.00 0.00 0.00 0.00 0.00 0.00 0.00 0.00 0.00 0.00 0.00 0.00 0.00 0.00 0.00 0.00 0.00 0.00 0.00 0.00 0.00 0.00 0.00 0.00 0.00
0.00 0.00 0.00 0.00 0.00 0.00 0.00 0.00 0.00 0.00 0.00 0.00 0.00 0.00 0.00 0.00 0.00 0.00 0.00 0.00 0.00 0.00 0.00 0.00 0.00 0.00 0.00 0.00 0.00 0.00 0.00 0.00 0.00 0.00 0.00 0.00 0.00 0.00 0.00 0.00 0.00 0.00 0.00
0.00 0.00 0.00 0.00 0.00 0.00 0.00 0.00 0.00 0.00 0.00 0.00 0.00 0.00 0.00 0.00 0.00 0.00 0.00 0.00 0.00 0.00 0.00 0.00 0.00 0.00 0.00 0.00 0.00 0.00 0.00 0.00 0.00 0.00 0.00 0.00 0.00 0.00 0.00 0.00 0.00 0.00 0.00
0.00 0.00 0.00 0.00 0.00 0.00 0.00 0.00 0.00 0.00 0.00 0.00 0.00 0.00 0.00 0.00 0.00 0.00 0.00 0.00 0.00 0.00 0.00 0.00 0.00 0.00 0.00 0.00 0.00 0.00 0.00 0.00 0.00 0.00 0.00 0.00 0.00 0.00 0.00 0.00 0.00 0.00 0.00
0.00 0.00 0.00 0.00 0.00 0.00 0.00 0.00 0.00 0.00 0.00 0.00 0.00 0.00 0.00 0.00 0.00 0.00 0.00 0.00 0.00 0.00 0.00 0.00 0.00 0.00 0.00 0.00 0.00 0.00 0.00 0.00 0.00 0.00 0.00 0.00 0.00 0.00 0.00 0.00 0.00 0.00 0.00
0.00 0.00 0.00 0.00 0.00 0.00 0.00 0.00 0.00 0.00 0.00 0.00 0.00 0.00 0.00 0.00 0.00 0.00 0.00 0.00 0.00 0.00 0.00 0.00 0.00 0.00 0.00 0.00 0.00 0.00 0.00 0.00 0.00 0.00 0.00 0.00 0.00 0.00 0.00 0.00 0.00 0.00 0.00
0.00 0.00 0.00 0.00 0.00 0.00 0.00 0.00 0.00 0.00 0.00 0.00 0.00 0.00 0.00 0.00 0.00 0.00 0.00 0.00 0.00 0.00 0.00 0.00 0.00 0.00 0.00 0.00 0.00 0.00 0.00 0.00 0.00 0.00 0.00 0.00 0.00 0.00 0.00 0.00 0.00 0.00 0.00
0.09 0.03 0.00 0.00 0.00 0.00 0.00 0.00 0.00 0.00 0.00 0.00 0.00 0.00 0.00 0.00 0.00 0.00 0.00 0.00 0.00 0.00 0.00 0.00 0.00 0.00 0.00 0.00 0.00 0.00 0.00 0.00 0.00 0.00 0.00 0.00 0.00 0.00 0.00 0.00 0.00 0.00 0.00
0.11 0.10 0.09 0.03 0.00 0.00 0.00 0.00 0.00 0.00 0.00 0.00 0.00 0.00 0.00 0.00 0.00 0.00 0.00 0.00 0.00 0.00 0.00 0.00 0.00 0.00 0.00 0.00 0.00 0.00 0.00 0.00 0.00 0.00 0.00 0.00 0.00 0.00 0.00 0.00 0.00 0.00 0.00
0.04 0.05 0.08 0.13 0.12 0.04 0.00 0.00 0.00 0.00 0.00 0.00 0.00 0.00 0.00 0.00 0.00 0.00 0.00 0.00 0.00 0.00 0.00 0.00 0.00 0.00 0.00 0.00 0.00 0.00 0.00 0.00 0.00 0.00 0.00 0.00 0.00 0.00 0.00 0.00 0.00 0.00 0.00
MSLP
999.99 1000.52 1001.20 1001.68 1002.19 1002.86 1003.50 1004.12 1004.59 1005.10 1005.54 1005.92 1006.48 1006.95 1007.28 1007.55 1007.80 1008.00 1008.08 1008.16 1008.23 1008.78 1009.20 1009.18 1009.37 1009.74 1009.71 1010.19 1010.63 1010.46 1010.85 1011.22 1011.74 1012.96 1013.47 1013.81 1014.02 1014.06 1014.11 1014.23 1014.66 1015.20 1015.85
1000.14 1000.77 1001.32 1001.88 1002.46 1003.21 1003.89 1004.38 1004.77 1005.14 1005.59 1006.05 1006.49 1006.82 1007.08 1007.26 1007.51 1007.60 1007.64 1007.75 1008.04 1008.56 1009.06 1009.25 1009.46 1009.52 1009.64 1010.17 1010.45 1010.38 1010.78 1011.32 1011.77 1012.95 1013.80 1014.20 1014.46 1014.53 1014.64 1014.96 1015.46 1016.05 1016.53
1000.36 1001.07 1001.73 1002.39 1002.99 1003.57 1004.07 1004.52 1004.85 1005.30 1005.73 1006.07 1006.40 1006.63 1006.85 1007.05 1007.22 1007.35 1007.39 1007.56 1007.98 1008.43 1008.95 1009.22 1009.37 1009.50 1009.64 1009.98 1010.16 1010.31 1010.57 1011.19 1012.00 1013.04 1013.90 1014.52 1014.98 1015.13 1015.32 1015.89 1016.37 1017.00 1017.71
1000.65 1001.30 1002.06 1002.74 1003.23 1003.75 1004.17 1004.56 1005.04 1005.43 1005.70 1006.03 1006.36 1006.58 1006.79 1006.98 1007.12 1007.26 1007.37 1007.60 1007.98 1008.33 1008.64 1009.05 1009.24 1009.30 1009.48 1009.82 1009.97 1010.16 1010.47 1011.30 1012.37 1013.21 1014.09 1014.69 1015.22 1015.75 1015.83 1016.44 1017.40 1018.05 1018.12
1000.87 1001.51 1002.29 1002.97 1003.51 1003.92 1004.28 1004.78 1005.19 1005.51 1005.81 1006.05 1006.34 1006.62 1006.92 1007.16 1007.43 1007.35 1007.35 1007.71 1008.05 1008.39 1008.64 1008.82 1009.02 1009.05 1009.24 1009.51 1009.63 1010.11 1010.54 1011.50 1012.56 1013.41 1014.15 1014.78 1015.40 1015.83 1016.38 1017.32 1017.88 1018.72 1019.79
1001.02 1001.62 1002.43 1003.05 1003.61 1004.03 1004.48 1004.91 1005.28 1005.62 1005.94 1006.19 1006.45 1006.72 1007.11 1007.51 1008.10 1008.02 1007.83 1007.57 1007.95 1008.45 1008.58 1008.74 1008.94 1009.19 1009.47 1009.81 1009.99 1010.07 1010.39 1011.29 1012.35 1013.15 1014.06 1014.58 1015.33 1015.86 1016.76 1017.34 1018.06 1019.10 1020.49
1001.11 1001.87 1002.51 1003.05 1003.55 1004.11 1004.55 1004.98 1005.29 1005.56 1005.94 1006.37 1006.71 1006.97 1007.30 1007.70 1008.13 1008.07 1007.91 1007.83 1008.08 1008.37 1008.62 1008.83 1009.00 1009.32 1009.60 1010.03 1010.46 1010.83 1011.23 1011.68 1011.78 1012.54 1013.63 1014.48 1015.18 1015.75 1016.38 1017.38 1018.24 1019.01 1020.08
1001.26 1001.90 1002.45 1002.93 1003.52 1004.10 1004.59 1005.04 1005.33 1005.62 1006.09 1006.62 1006.93 1007.13 1007.44 1008.07 1008.19 1008.16 1008.09 1008.00 1008.23 1008.33 1008.63 1008.89 1009.23 1009.53 1009.89 1010.21 1010.63 1011.11 1011.72 1012.35 1012.63 1012.94 1013.78 1014.40 1015.08 1015.71 1016.41 1017.18 1018.26 1019.28 1020.52
1001.32 1001.87 1002.34 1002.89 1003.44 1004.01 1004.58 1005.06 1005.25 1005.86 1006.41 1006.82 1007.01 1007.22 1007.58 1008.23 1008.42 1008.38 1008.21 1008.35 1008.43 1008.59 1008.87 1009.16 1009.42 1009.88 1010.20 1010.55 1010.91 1011.34 1012.07 1012.99 1013.42 1013.71 1014.31 1015.05 1015.69 1016.22 1016.82 1017.65 1018.79 1019.10 1020.14
1001.21 1001.80 1002.34 1002.83 1003.37 1003.93 1004.63 1005.02 1005.30 1005.77 1006.43 1006.85 1007.17 1007.49 1008.23 1008.40 1008.74 1008.70 1008.57 1008.71 1008.80 1009.01 1009.27 1009.50 1009.68 1010.00 1010.60 1010.97 1011.33 1011.73 1012.38 1013.19 1013.90 1014.81 1015.79 1016.38 1016.66 1017.29 1017.59 1017.57 1018.04 1018.85 1019.27
1001.27 1001.89 1002.43 1002.94 1003.41 1004.03 1004.83 1005.24 1005.52 1006.11 1006.65 1006.97 1007.30 1007.73 1008.31 1008.62 1008.94 1008.97 1008.95 1008.70 1008.97 1009.27 1009.62 1009.99 1010.34 1010.52 1010.93 1011.28 1011.64 1011.99 1012.67 1013.29 1014.27 1015.02 1015.87 1016.65 1017.18 1017.59 1018.05 1018.39 1018.65 1018.62 1018.62
1001.34 1001.86 1002.42 1003.01 1003.46 1004.18 1004.86 1005.36 1005.76 1006.30 1006.82 1007.10 1007.44 1008.03 1008.46 1008.80 1009.13 1009.19 1009.17 1009.21 1009.38 1009.50 1009.94 1010.35 1010.86 1011.11 1011.37 1011.70 1011.97 1012.57 1013.23 1013.83 1014.47 1015.23 1015.97 1016.65 1017.17 1017.69 1018.30 1018.54 1018.85 1018.74 1019.06
1001.35 1001.92 1002.48 1003.06 1003.57 1004.24 1004.87 1005.38 1005.76 1006.29 1006.56 1007.16 1007.51 1007.78 1008.46 1008.88 1009.33 1009.42 1009.43 1009.52 1009.69 1009.91 1010.31 1010.77 1011.30 1011.64 1011.97 1012.21 1012.54 1012.90 1013.50 1014.03 1014.60 1015.18 1015.83 1016.45 1016.87 1017.39 1018.08 1018.67 1019.13 1019.35 1019.57
1001.23 1001.90 1002.48 1002.96 1003.58 1004.31 1004.92 1005.44 1005.82 1006.16 1006.37 1006.80 1007.18 1007.76 1008.41 1008.91 1009.24 1009.50 1009.76 1009.99 1010.18 1010.62 1010.96 1011.54 1011.81 1012.06 1012.34 1012.84 1013.25 1013.37 1013.62 1013.97 1014.43 1014.91 1015.61 1016.39 1016.92 1017.56 1018.04 1018.53 1019.01 1019.35 1019.31
1001.08 1001.73 1002.31 1002.90 1003.45 1004.39 1005.08 1005.81 1005.71 1006.05 1006.26 1006.81 1006.97 1007.49 1008.18 1008.65 1009.02 1009.15 1009.46 1009.84 1010.23 1010.74 1011.19 1011.64 1012.00 1012.45 1012.91 1013.16 1013.27 1013.44 1013.77 1014.10 1014.32 1014.78 1015.57 1016.17 1016.83 1017.39 1017.78 1018.22 1018.34 1018.68 1018.80
1000.85 1001.45 1001.98 1002.61 1003.43 1004.35 1005.24 1006.12 1006.68 1006.58 1006.82 1007.00 1007.28 1007.37 1007.90 1008.45 1009.20 1009.71 1009.86 1010.10 1010.53 1010.89 1011.21 1011.63 1012.10 1012.57 1012.91 1013.10 1013.31 1013.55 1013.80 1014.10 1014.38 1014.52 1015.05 1015.64 1016.19 1016.74 1017.08 1017.63 1017.86 1018.04 1018.15
1000.37 1001.11 1001.82 1002.37 1003.03 1003.99 1004.70 1005.08 1005.92 1007.41 1007.48 1007.55 1007.76 1008.03 1008.32 1008.73 1009.46 1009.93 1010.23 1010.54 1010.78 1010.92 1011.14 1011.60 1011.99 1012.40 1012.79 1012.97 1013.19 1013.28 1013.49 1013.70 1014.13 1014.25 1014.59 1015.09 1015.54 1016.03 1016.72 1016.97 1017.25 1017.42 1017.44
1000.22 1000.89 1001.43 1001.96 1002.62 1003.32 1003.99 1004.41 1004.78 1005.60 1006.52 1007.52 1008.35 1008.52 1008.98 1009.25 1009.64 1010.09 1010.46 1010.77 1010.94 1010.92 1011.07 1011.42 1011.83 1012.06 1012.30 1012.74 1012.93 1012.92 1012.99 1013.68 1014.08 1014.29 1014.45 1014.79 1015.20 1015.50 1016.11 1016.22 1016.47 1016.67 1016.84
1000.05 1000.75 1001.22 1001.83 1002.38 1002.96 1003.59 1004.02 1004.34 1004.86 1005.44 1006.47 1008.20 1009.01 1009.53 1009.86 1010.02 1010.26 1010.33 1010.01 1010.30 1010.51 1010.90 1011.21 1011.55 1011.83 1011.92 1012.06 1012.44 1012.83 1013.05 1013.21 1013.49 1013.80 1014.05 1014.38 1014.77 1015.00 1015.33 1015.61 1015.73 1016.13 1016.28
1000.00 1000.51 1001.06 1001.61 1002.25 1002.81 1003.26 1003.62 1003.98 1004.45 1005.06 1005.92 1007.22 1008.16 1009.30 1009.78 1010.18 1010.46 1010.09 1009.51 1009.69 1009.59 1009.96 1010.37 1011.03 1011.44 1011.80 1011.95 1012.21 1012.46 1012.83 1013.55 1013.84 1013.61 1013.71 1014.00 1014.34 1014.58 1014.60 1014.80 1015.01 1015.19 1015.58
999.98 1000.77 1001.17 1001.39 1001.84 1002.21 1002.72 1003.11 1003.54 1004.01 1004.43 1005.14 1006.04 1007.57 1008.16 1008.58 1009.00 1009.30 1009.35 1009.19 1009.01 1009.05 1009.31 1009.61 1009.99 1010.38 1010.84 1011.45 1011.94 1012.39 1012.71 1012.81 1013.40 1013.35 1013.18 1013.44 1013.70 1013.85 1014.08 1014.14 1014.23 1014.47 1014.60
1000.11 1000.49 1001.07 1001.10 1001.47 1001.95 1002.34 1002.83 1003.24 1003.65 1004.13 1004.73 1005.62 1007.45 1008.15 1007.99 1007.85 1008.27 1008.44 1008.66 1008.57 1008.66 1008.94 1009.35 1009.62 1009.93 1010.28 1010.67 1010.98 1011.48 1011.89 1012.23 1012.64 1012.97 1012.64 1012.72 1012.95 1013.16 1013.27 1013.30 1013.40 1013.55 1013.68
1000.34 1000.75 1001.04 1001.27 1001.56 1001.97 1002.55 1002.68 1002.97 1003.34 1003.78 1004.40 1005.18 1006.52 1007.70 1007.38 1006.92 1006.96 1007.20 1007.69 1008.10 1008.25 1008.53 1008.83 1009.01 1009.20 1009.56 1009.86 1010.20 1010.55 1010.79 1010.86 1011.10 1011.51 1011.57 1011.68 1011.86 1012.04 1012.20 1012.23 1012.34 1012.46 1012.53
1000.95 1000.98 1001.26 1001.55 1001.93 1002.04 1002.17 1002.55 1002.92 1003.34 1003.52 1004.05 1004.75 1005.40 1006.10 1006.30 1006.22 1006.21 1006.54 1006.92 1007.35 1007.73 1007.99 1008.20 1008.34 1008.39 1008.64 1008.97 1009.28 1009.53 1009.64 1009.75 1009.98 1010.22 1010.70 1010.78 1010.86 1011.07 1011.24 1011.13 1011.18 1011.23 1011.36
1001.93 1002.03 1002.29 1002.32 1002.53 1002.72 1002.80 1002.99 1003.43 1003.66 1004.05 1004.41 1004.84 1005.34 1005.62 1005.98 1006.08 1006.27 1006.53 1006.88 1007.17 1007.45 1007.68 1007.86 1007.97 1008.02 1008.23 1008.44 1008.47 1008.59 1008.75 1009.36 1009.47 1009.44 1009.61 1009.97 1009.95 1009.95 1009.97 1010.02 1010.01 1010.11 1010.26
1003.36 1003.73 1004.06 1004.12 1003.78 1003.75 1004.06 1004.20 1004.43 1004.86 1005.02 1005.25 1005.49 1005.68 1005.80 1006.01 1006.12 1006.44 1006.70 1006.84 1006.92 1007.04 1007.26 1007.39 1007.51 1007.68 1007.87 1007.99 1008.12 1008.32 1008.71 1009.15 1009.43 1009.76 1009.34 1009.16 1009.12 1009.06 1008.98 1008.83 1008.87 1008.94 1008.95
Thickness
5727 5723 5718 5713 5708 5702 5696 5689 5683 5677 5671 5666 5661 5656 5652 5649 5647 5645 5643 5640 5636 5629 5623 5622 5619 5617 5617 5615 5613 5616 5614 5615 5608 5609 5610 5612 5614 5619 5623 5627 5629 5629 5629
5721 5717 5712 5707 5701 5694 5687 5682 5677 5672 5667 5662 5657 5653 5650 5648 5647 5645 5643 5640 5634 5626 5622 5618 5616 5616 5617 5615 5613 5616 5615 5614 5614 5607 5606 5608 5611 5616 5619 5621 5621 5622 5622
5715 5709 5703 5697 5692 5685 5681 5677 5673 5668 5663 5658 5655 5652 5650 5649 5647 5646 5644 5639 5633 5627 5619 5616 5614 5614 5614 5612 5614 5615 5616 5615 5614 5608 5605 5605 5607 5611 5614 5614 5614 5612 5611
5708 5702 5696 5690 5685 5680 5676 5673 5668 5665 5660 5656 5653 5651 5650 5648 5647 5645 5642 5637 5631 5626 5619 5616 5614 5614 5612 5609 5611 5614 5617 5613 5609 5606 5605 5605 5605 5606 5610 5610 5606 5604 5601
5701 5696 5689 5684 5679 5674 5671 5667 5664 5660 5657 5654 5651 5649 5647 5645 5643 5642 5641 5635 5630 5624 5619 5616 5615 5617 5615 5614 5615 5614 5616 5612 5606 5605 5604 5604 5604 5606 5606 5603 5603 5599 5594
5696 5691 5685 5679 5673 5668 5664 5661 5658 5656 5652 5650 5647 5645 5642 5641 5631 5632 5634 5636 5630 5623 5619 5617 5616 5615 5613 5611 5612 5616 5618 5613 5607 5607 5603 5604 5604 5605 5603 5603 5602 5600 5593
5691 5685 5680 5675 5670 5664 5660 5656 5654 5653 5649 5644 5642 5641 5639 5638 5630 5631 5633 5634 5629 5624 5621 5617 5616 5614 5614 5613 5609 5610 5610 5611 5615 5610 5606 5604 5603 5604 5606 5604 5603 5602 5597
5685 5681 5677 5673 5667 5661 5657 5652 5651 5649 5645 5640 5638 5638 5637 5633 5629 5631 5631 5632 5628 5625 5621 5619 5615 5613 5613 5614 5612 5609 5608 5607 5608 5611 5607 5605 5605 5605 5606 5606 5603 5599 5593
5680 5678 5675 5671 5665 5660 5653 5649 5648 5644 5640 5636 5636 5635 5635 5630 5627 5628 5632 5629 5626 5623 5621 5618 5616 5613 5610 5610 5612 5610 5607 5604 5605 5607 5607 5606 5605 5606 5605 5605 5600 5603 5595
5678 5676 5674 5670 5664 5659 5652 5648 5646 5643 5638 5635 5633 5633 5627 5628 5624 5626 5630 5628 5624 5620 5618 5616 5614 5613 5607 5608 5610 5610 5608 5606 5605 5603 5601 5599 5599 5600 5601 5604 5605 5602 5603
5678 5674 5670 5667 5662 5657 5649 5645 5642 5637 5633 5632 5631 5629 5626 5626 5625 5623 5626 5629 5625 5621 5617 5615 5612 5609 5607 5607 5608 5610 5609 5609 5605 5604 5602 5600 5599 5599 5598 5599 5601 5604 5608
5676 5672 5668 5664 5661 5655 5648 5642 5638 5633 5628 5628 5629 5625 5625 5625 5622 5621 5623 5624 5622 5621 5617 5614 5610 5607 5605 5605 5608 5604 5604 5605 5606 5604 5602 5601 5601 5599 5597 5598 5600 5603 5605
5673 5669 5666 5662 5659 5654 5646 5640 5636 5631 5630 5625 5626 5627 5625 5625 5622 5619 5620 5620 5620 5620 5617 5612 5607 5605 5604 5604 5603 5603 5604 5606 5606 5605 5605 5603 5604 5602 5599 5598 5598 5600 5602
5672 5667 5664 5661 5657 5651 5646 5641 5635 5630 5628 5628 5629 5626 5626 5625 5624 5623 5622 5620 5617 5615 5612 5609 5608 5608 5608 5604 5602 5605 5606 5608 5609 5608 5607 5604 5604 5603 5603 5602 5601 5602 5606
5672 5668 5664 5661 5658 5649 5645 5641 5639 5634 5632 5628 5632 5632 5629 5627 5628 5627 5626 5624 5621 5616 5614 5612 5611 5609 5606 5607 5607 5610 5611 5612 5613 5613 5609 5609 5607 5606 5607 5607 5608 5608 5610
5672 5669 5666 5663 5657 5649 5643 5636 5625 5628 5627 5629 5631 5635 5634 5630 5624 5621 5621 5620 5617 5615 5616 5614 5613 5610 5609 5610 5611 5612 5614 5615 5616 5618 5617 5615 5614 5613 5614 5612 5613 5614 5615
5677 5673 5668 5665 5661 5653 5648 5646 5640 5623 5621 5623 5627 5628 5630 5629 5622 5619 5619 5618 5617 5618 5619 5617 5616 5615 5614 5615 5615 5617 5618 5620 5620 5623 5623 5621 5621 5621 5616 5617 5617 5618 5619
5680 5671 5672 5669 5666 5661 5656 5654 5649 5640 5639 5635 5624 5627 5625 5624 5623 5621 5619 5619 5621 5621 5622 5621 5620 5621 5622 5619 5619 5622 5624 5621 5621 5623 5624 5625 5624 5624 5620 5622 5623 5622 5622
5682 5676 5675 5672 5669 5665 5662 5659 5657 5654 5651 5646 5632 5626 5623 5621 5621 5621 5623 5632 5629 5627 5624 5623 5623 5624 5626 5627 5627 5626 5626 5626 5627 5627 5628 5628 5628 5628 5627 5628 5629 5620 5621
5682 5677 5675 5674 5671 5668 5666 5664 5662 5659 5657 5653 5645 5643 5630 5631 5631 5626 5631 5637 5636 5639 5637 5635 5630 5630 5629 5631 5632 5632 5631 5626 5626 5631 5633 5633 5632 5632 5632 5631 5631 5631 5627
5680 5675 5673 5677 5674 5674 5672 5670 5668 5666 5664 5661 5659 5649 5639 5648 5643 5640 5638 5641 5644 5645 5644 5643 5643 5642 5640 5637 5634 5632 5632 5634 5632 5634 5638 5637 5636 5635 5635 5635 5635 5634 5632
5679 5677 5674 5677 5678 5675 5675 5674 5672 5670 5669 5666 5664 5650 5637 5652 5653 5648 5646 5646 5649 5650 5650 5648 5647 5647 5646 5645 5644 5642 5640 5639 5637 5636 5641 5641 5640 5639 5639 5638 5637 5636 5635
5674 5672 5672 5672 5674 5670 5670 5673 5674 5674 5672 5670 5668 5659 5647 5653 5658 5658 5656 5654 5652 5653 5653 5653 5653 5652 5652 5650 5649 5649 5648 5649 5648 5647 5647 5647 5646 5645 5643 5642 5641 5640 5639
5665 5667 5667 5668 5666 5670 5673 5672 5672 5668 5674 5672 5669 5667 5662 5661 5662 5663 5661 5660 5658 5657 5656 5656 5656 5658 5658 5655 5654 5653 5653 5653 5653 5651 5649 5649 5649 5646 5645 5646 5645 5644 5642
5650 5654 5656 5659 5660 5662 5665 5668 5667 5669 5668 5668 5667 5665 5665 5662 5661 5662 5662 5661 5660 5659 5658 5657 5657 5656 5655 5655 5656 5655 5655 5653 5651 5651 5650 5648 5649 5649 5649 5648 5647 5646 5644
5627 5630 5633 5638 5645 5650 5651 5654 5655 5654 5656 5658 5659 5659 5659 5658 5658 5657 5657 5657 5658 5658 5658 5658 5657 5655 5654 5654 5654 5654 5653 5650 5648 5646 5646 5649 5650 5651 5651 5651 5649 5649 5648